This is the latest recevied weather packets stored in our database for station/object S57PNX-8. If no packets are shown the sender has not sent any weather packets the latest 10 day(s).
| Time | Temp. | Humidity | Pressure | Rain* | Wind** | Luminosity | Snow |
|---|---|---|---|---|---|---|---|
| 1788277856 | 34.44° C | 31% | 1025.3 hPa | - | - | - | - |
| 1788276957 | 33.33° C | 33% | 1025.4 hPa | - | - | - | - |
| 1788276058 | 30° C | 39% | 1025.4 hPa | - | - | - | - |
| 1788275159 | 28.33° C | 41% | 1025.5 hPa | - | - | - | - |
| 1788274260 | 27.22° C | 44% | 1025.5 hPa | - | - | - | - |
| 1788273361 | 26.11° C | 46% | 1025.5 hPa | - | - | - | - |
| 1788272469 | 26.11° C | 47% | 1025.6 hPa | - | - | - | - |
| 1788271563 | 25.56° C | 47% | 1025.5 hPa | - | - | - | - |
| 1788270685 | 25.56° C | 48% | 1025.6 hPa | - | - | - | - |
| 1788269765 | 25° C | 48% | 1025.6 hPa | - | - | - | - |
| 1788268865 | 25° C | 48% | 1025.8 hPa | - | - | - | - |
| 1788267966 | 24.44° C | 49% | 1026 hPa | - | - | - | - |
| 1788267067 | 24.44° C | 49% | 1026 hPa | - | - | - | - |
| 1788266168 | 23.89° C | 49% | 1025.9 hPa | - | - | - | - |
| 1788265276 | 23.89° C | 49% | 1026.1 hPa | - | - | - | - |
| 1788265269 | 23.89° C | 49% | 1026.1 hPa | - | - | - | - |
| 1788264370 | 23.89° C | 49% | 1026.1 hPa | - | - | - | - |
| 1788263471 | 23.33° C | 50% | 1026.2 hPa | - | - | - | - |
| 1788262572 | 23.33° C | 51% | 1026.2 hPa | - | - | - | - |
| 1788261673 | 22.78° C | 51% | 1026.2 hPa | - | - | - | - |
| 1788260774 | 22.78° C | 51% | 1026.2 hPa | - | - | - | - |
| 1788259871 | 22.78° C | 52% | 1026.3 hPa | - | - | - | - |
| 1788258972 | 22.22° C | 52% | 1026.3 hPa | - | - | - | - |
| 1788258069 | 22.22° C | 52% | 1026.4 hPa | - | - | - | - |
| 1788257168 | 21.67° C | 53% | 1026.4 hPa | - | - | - | - |
* Rain since midnight (hover to see other rain measurements)
** Current wind speed in m/s (hover to see current wind gust speed)